Location: New Plymouth
(39.0670°S, 174.0830°E)
Time: 19:39:57
(UTC+13:00)

ISS - Visible Passes

Search period start: 04 December 2023 00:00
Search period end: 14 December 2023 00:00
Orbit: 415 x 417 km, 51.6° (Epoch: 04 December)

Date Brightness Start Highest point End Pass type
(mag) Time Alt. Az. Time Alt. Az. Time Alt. Az.
04 Dec -1.4 02:15:15 24° S 02:15:15 24° S 02:17:19 10° SSE visible
04 Dec -0.6 03:50:54 10° SSW 03:51:58 11° S 03:53:02 10° S visible
05 Dec -0.8 01:28:05 16° SE 01:28:05 16° SE 01:28:58 10° SE visible
05 Dec -0.7 03:01:29 10° SW 03:03:09 13° SSW 03:04:48 10° SSE visible
05 Dec -0.4 04:40:12 10° S 04:41:07 11° S 04:42:01 10° SSE visible
06 Dec -0.9 02:13:36 15° SW 02:14:19 16° SSW 02:16:31 10° SSE visible
06 Dec -0.3 03:51:50 10° S 03:52:13 10° S 03:52:35 10° S visible
07 Dec -1.0 01:26:06 20° S 01:26:06 20° S 01:28:10 10° SSE visible
07 Dec -0.3 03:02:42 10° SSW 03:03:16 10° S 03:03:49 10° S visible
07 Dec -0.6 04:39:13 10° SSW 04:41:12 14° SSE 04:43:09 10° SE visible
08 Dec -1.1 00:38:16 20° SSE 00:38:16 20° SSE 00:39:43 10° SE visible
08 Dec -0.4 02:13:08 10° SSW 02:14:16 11° S 02:15:26 10° S visible
08 Dec -0.4 03:50:51 10° SSW 03:52:15 12° SSE 03:53:38 10° SE visible
08 Dec -1.5 23:49:47 21° SSE 23:49:47 21° SSE 23:51:10 10° SE visible
09 Dec -0.4 01:23:31 10° SW 01:25:16 13° SSW 01:27:01 10° SSE visible
09 Dec -0.2 03:02:26 10° S 03:03:13 11° S 03:04:00 10° SSE visible
09 Dec -1.1 04:38:05 10° SSW 04:40:56 23° SSE 04:43:45 10° E visible
09 Dec -1.7 21:22:14 10° NE 21:22:50 10° NE 21:23:25 10° ENE visible
09 Dec -3.7 22:55:41 10° NW 22:59:04 79° SW 23:02:30 10° SE visible
10 Dec -0.7 00:33:59 10° WSW 00:36:15 16° SSW 00:38:32 10° SSE visible
10 Dec 0.0 02:13:51 10° S 02:14:08 10° S 02:14:24 10° S visible
10 Dec -0.6 03:49:35 10° SSW 03:51:58 17° SSE 03:54:21 10° ESE visible
10 Dec -3.7 22:06:59 10° NW 22:10:18 56° NE 22:13:40 10° ESE visible
10 Dec -1.1 23:44:31 10° WSW 23:47:14 22° SSW 23:49:59 10° SSE visible
11 Dec 0.0 01:24:21 10° SSW 01:24:58 10° S 01:25:38 10° S visible
11 Dec -0.3 03:01:03 10° SSW 03:02:55 14° SSE 03:04:46 10° SE visible
11 Dec -2.7 04:36:56 10° SW 04:40:17 51° SE 04:43:35 10° ENE visible
11 Dec -2.9 21:18:34 10° NNW 21:21:33 30° NE 21:24:34 10° ESE visible
11 Dec -1.8 22:55:10 10° W 22:58:14 31° SSW 23:01:21 10° SE visible
12 Dec -0.1 00:34:33 10° SSW 00:35:49 12° S 00:37:03 10° S visible
12 Dec -0.1 02:12:30 10° SSW 02:13:46 12° S 02:15:02 10° SSE visible
12 Dec -1.8 03:48:13 10° SW 03:51:20 32° SSE 03:54:25 10° E visible
12 Dec -2.8 22:05:57 10° WNW 22:09:16 50° SW 22:12:36 10° SE visible
12 Dec -0.3 23:44:46 10° SW 23:46:37 14° SSW 23:48:28 10° SSE visible
13 Dec 0.0 01:23:54 10° S 01:24:33 10° S 01:25:11 10° SSE visible
13 Dec -1.1 02:59:31 10° SSW 03:02:16 22° SSE 03:05:00 10° ESE visible
13 Dec -3.7 04:35:51 10° WSW 04:39:12 55° NW 04:42:31 10° NE visible
13 Dec -3.7 21:16:55 10° NW 21:20:19 89° SSW 21:23:43 10° SE visible
13 Dec -0.6 22:55:03 10° WSW 22:57:25 17° SSW 22:59:48 10° SSE visible
